Weather History for KPBG - June, 2013

Change the Weather History Date:

Saturday, June 8, 2013

  Actual Average Record
Temperature  
Mean Temperature 59 °F 62 °F  
Max Temperature 63 °F 73 °F 94 °F (2011)
Min Temperature 54 °F 51 °F 41 °F (1960)
Degree Days  
Heating Degree Days 8    
Cooling Degree Days 0 2  
Month to date cooling degree days 20 9  
Year to date cooling degree days 40 17  
Since 1 June cooling degree days 20 9  
Growing Degree Days 8 (Base 50)    
Moisture  
Dew Point 54 °F    
Average Humidity 89    
Maximum Humidity 100    
Minimum Humidity 78    
Precipitation  
Precipitation 0.02 in - 0.88 in (1971)
Month to date precipitation 1.91  
Year to date precipitation 11.10  
Sea Level Pressure  
Sea Level Pressure 29.87 in    
Wind  
Wind Speed 5 mph (North)    
Max Wind Speed 13 mph    
Max Gust Speed 16 mph    
Visibility 10 miles    
Events Rain    
T = Trace of Precipitation, MM = Missing Value Source: NWS Daily Summary

Daily Weather History Graph

Daily Weather History Graph

Search for Another Location

Airport or City:

Trip Planner

Search our weather history database for the weather conditions in past years. The results will help you decide how hot, cold, wet, or windy it might be!

Date:

Astronomy

Jun. 08, 2013 Rise Set
Actual Time 5:08 AM EDT 8:37 PM EDT
Civil Twilight 4:32 AM EDT 9:14 PM EDT
Nautical Twilight 3:44 AM EDT 10:02 PM EDT
Astronomical Twilight 2:42 AM EDT 11:04 PM EDT
Moon 5:16 AM EDT (6/8) 8:35 PM EDT (6/8)
Length of Visible Light 16h 41m
Length of Day
15h 28m
New Moon, 0% of the Moon is Illuminated
Jun 8
New Moon
Jun 16
First Quarter
Jun 23
Full
Jun 30
Last Quarter
Jul 8
New

Hourly Weather History & Observations

Time (EDT) Temp. Dew Point Humidity Pressure Visibility Wind Dir Wind Speed Gust Speed Precip Events Conditions
12:53 AM 54.0 °F 53.1 °F 97% 29.87 in 10.0 mi Calm Calm - 0.00 in Rain Light Rain
1:08 AM 53.6 °F 53.6 °F 100% 29.86 in 10.0 mi Calm Calm - 0.00 in Rain Light Rain
1:16 AM 53.6 °F 53.6 °F 100% 29.85 in 10.0 mi North 3.5 mph - 0.00 in Rain Light Rain
1:36 AM 53.6 °F 53.6 °F 100% 29.84 in 10.0 mi North 3.5 mph - 0.00 in Rain Light Rain
1:45 AM 53.6 °F 53.6 °F 100% 29.83 in 10.0 mi North 4.6 mph - 0.00 in Rain Light Rain
1:53 AM 54.0 °F 53.1 °F 97% 29.83 in 10.0 mi North 4.6 mph - 0.01 in Rain Light Rain
2:00 AM 53.6 °F 53.6 °F 100% 29.83 in 10.0 mi North 4.6 mph - 0.00 in Rain Light Rain
2:53 AM 54.0 °F 53.1 °F 97% 29.81 in 10.0 mi North 6.9 mph - 0.00 in   Overcast
3:53 AM 54.0 °F 53.1 °F 97% 29.80 in 10.0 mi North 5.8 mph - N/A   Overcast
4:53 AM 54.0 °F 53.1 °F 97% 29.80 in 10.0 mi North 6.9 mph - 0.00 in   Overcast
5:53 AM 54.0 °F 53.1 °F 97% 29.79 in 5.0 mi NNW 5.8 mph - 0.01 in   Overcast
6:53 AM 54.0 °F 53.1 °F 97% 29.79 in 10.0 mi NNW 5.8 mph - N/A   Overcast
7:53 AM 55.0 °F 53.1 °F 93% 29.80 in 10.0 mi North 9.2 mph - N/A   Overcast
8:46 AM 57.2 °F 53.6 °F 88% 29.80 in 10.0 mi North 10.4 mph - N/A   Overcast
8:53 AM 57.0 °F 54.0 °F 89% 29.81 in 10.0 mi North 11.5 mph - N/A   Overcast
9:00 AM 57.2 °F 53.6 °F 88% 29.81 in 10.0 mi North 11.5 mph - N/A   Overcast
9:39 AM 59.0 °F 53.6 °F 82% 29.81 in 10.0 mi North 9.2 mph - N/A   Overcast
9:46 AM 59.0 °F 53.6 °F 82% 29.81 in 10.0 mi North 8.1 mph - N/A   Overcast
9:53 AM 59.0 °F 54.0 °F 83% 29.82 in 10.0 mi North 8.1 mph - N/A   Overcast
10:53 AM 59.0 °F 54.0 °F 83% 29.84 in 10.0 mi North 9.2 mph - N/A   Overcast
11:38 AM 60.8 °F 53.6 °F 77% 29.85 in 10.0 mi North 9.2 mph - N/A   Overcast
11:48 AM 60.8 °F 53.6 °F 77% 29.85 in 10.0 mi North 8.1 mph - N/A   Overcast
11:53 AM 61.0 °F 54.0 °F 78% 29.86 in 10.0 mi North 9.2 mph - N/A   Overcast
12:53 PM 61.0 °F 55.0 °F 81% 29.86 in 10.0 mi NNE 9.2 mph - N/A   Overcast
1:53 PM 62.1 °F 55.0 °F 78% 29.87 in 10.0 mi North 9.2 mph - N/A   Overcast
2:53 PM 61.0 °F 55.9 °F 83% 29.88 in 10.0 mi SSE 4.6 mph - N/A   Overcast
3:33 PM 60.8 °F 55.4 °F 82% 29.89 in 10.0 mi SE 5.8 mph - N/A   Overcast
3:53 PM 61.0 °F 55.0 °F 81% 29.90 in 10.0 mi South 5.8 mph - N/A   Overcast
4:50 PM 59.0 °F 55.4 °F 88% 29.92 in 10.0 mi SSE 4.6 mph - 0.00 in   Overcast
4:53 PM 59.0 °F 55.0 °F 87% 29.93 in 10.0 mi South 3.5 mph - 0.00 in Rain Light Rain
5:21 PM 59.0 °F 55.4 °F 88% 29.93 in 10.0 mi South 3.5 mph - 0.00 in   Overcast
5:29 PM 59.0 °F 55.4 °F 88% 29.94 in 10.0 mi SSE 4.6 mph - 0.00 in   Overcast
5:53 PM 59.0 °F 55.0 °F 87% 29.94 in 10.0 mi SSE 3.5 mph - 0.00 in Rain Light Rain
6:40 PM 59.0 °F 55.4 °F 88% 29.95 in 10.0 mi South 3.5 mph - 0.00 in   Overcast
6:53 PM 60.1 °F 55.9 °F 86% 29.96 in 10.0 mi SSE 4.6 mph - 0.00 in   Overcast
7:53 PM 59.0 °F 55.9 °F 90% 29.97 in 10.0 mi South 3.5 mph - N/A   Overcast
8:53 PM 57.9 °F 55.9 °F 93% 29.97 in 10.0 mi Variable 3.5 mph - N/A   Overcast
9:53 PM 57.0 °F 55.0 °F 93% 29.99 in 10.0 mi Calm Calm - N/A   Mostly Cloudy
10:53 PM 55.9 °F 55.0 °F 97% 30.01 in 7.0 mi Calm Calm - N/A   Overcast
11:53 PM 57.0 °F 55.9 °F 96% 30.01 in 10.0 mi Calm Calm - N/A   Overcast